Location: Zwardon
(49.5170°N, 18.9830°E)
Time: 10:11:14
(UTC+01:00)

X-37B - Pass Details

Date: 16 December 2022
Orbit: 277 x 277 km, 45.0° (Epoch: 01 November)

Event Time Altitude Azimuth Distance (km) Brightness Sun altitude
Rises 17:02:47 0° 263° (W) 1,914 5.8 -11.9°
Reaches altitude 10° 17:04:54 10° 247° (WSW) 1,100 4.4 -12.2°
Maximum altitude 17:06:56 23° 191° (S) 655 2.1 -12.5°
Drops below altitude 10° 17:08:57 10° 135° (SE) 1,098 2.6 -12.8°
Enters shadow 17:08:58 10° 135° (SE) 1,103 2.6 -12.8°
